• en Suisse
  • Liste des pays
  • À 7 jours
  • Température de l'eau
  • Carte satellitaire
  • Carte météo
  • Widgets météo
  • user-avatar
    Se connecter

    Météo par heure à Townsville

    Ce jour, 20 Juin, Mercredi

    Heure Température Précipitation Vent Pression Humidité
    00:00 +12°C° 0 mm 2 m/s 759 mmHg 41%
    01:00 +12°C° 0 mm 2 m/s 759 mmHg 41%
    02:00 +11°C° 0 mm 3 m/s 759 mmHg 41%
    03:00 +11°C° 0 mm 3 m/s 759 mmHg 40%
    04:00 +10°C° 0 mm 3 m/s 759 mmHg 42%
    05:00 +10°C° 0 mm 3 m/s 759 mmHg 41%
    06:00 +10°C° 0 mm 3 m/s 759 mmHg 40%
    07:00 +10°C° 0 mm 3 m/s 759 mmHg 39%
    08:00 +13°C° 0 mm 3 m/s 759 mmHg 35%
    09:00 +18°C° 0 mm 3 m/s 759 mmHg 30%
    10:00 +21°C° 0 mm 3 m/s 760 mmHg 24%
    11:00 +22°C° 0 mm 3 m/s 759 mmHg 23%
    12:00 +24°C° 0 mm 3 m/s 758 mmHg 22%
    13:00 +26°C° 0 mm 3 m/s 758 mmHg 20%
    14:00 +25°C° 0 mm 3 m/s 758 mmHg 22%
    15:00 +25°C° 0 mm 3 m/s 757 mmHg 23%
    16:00 +25°C° 0 mm 3 m/s 757 mmHg 24%
    17:00 +21°C° 0 mm 3 m/s 757 mmHg 36%
    18:00 +19°C° 0 mm 3 m/s 758 mmHg 47%
    19:00 +16°C° 0 mm 2 m/s 758 mmHg 59%
    20:00 +15°C° 0 mm 2 m/s 758 mmHg 65%
    21:00 +15°C° 0 mm 2 m/s 758 mmHg 71%
    22:00 +14°C° 0 mm 2 m/s 759 mmHg 77%
    23:00 +14°C° 0 mm 2 m/s 759 mmHg 79%

    Demain, 21 Juin, Jeudi

    Heure Température Précipitation Vent Pression Humidité
    00:00 +13°C° 0 mm 3 m/s 759 mmHg 81%
    01:00 +12°C° 0 mm 3 m/s 759 mmHg 84%
    02:00 +12°C° 0 mm 3 m/s 758 mmHg 84%
    03:00 +12°C° 0 mm 3 m/s 758 mmHg 85%
    04:00 +11°C° 0 mm 3 m/s 758 mmHg 85%
    05:00 +11°C° 0 mm 3 m/s 758 mmHg 83%
    06:00 +11°C° 0 mm 3 m/s 758 mmHg 81%
    07:00 +10°C° 0 mm 3 m/s 759 mmHg 79%
    08:00 +14°C° 0 mm 3 m/s 759 mmHg 70%
    09:00 +18°C° 0 mm 4 m/s 759 mmHg 61%
    10:00 +21°C° 0 mm 4 m/s 759 mmHg 53%
    11:00 +22°C° 0 mm 4 m/s 759 mmHg 49%
    12:00 +25°C° 0 mm 4 m/s 758 mmHg 46%
    13:00 +26°C° 0 mm 4 m/s 758 mmHg 43%
    14:00 +25°C° 0 mm 4 m/s 757 mmHg 46%
    15:00 +25°C° 0 mm 4 m/s 757 mmHg 50%
    16:00 +23°C° 0 mm 4 m/s 756 mmHg 54%
    17:00 +21°C° 0 mm 4 m/s 757 mmHg 64%
    18:00 +19°C° 0 mm 4 m/s 757 mmHg 74%
    19:00 +17°C° 0 mm 4 m/s 758 mmHg 83%
    20:00 +17°C° 0 mm 3 m/s 758 mmHg 85%
    21:00 +17°C° 0 mm 3 m/s 759 mmHg 87%
    22:00 +16°C° 0 mm 3 m/s 759 mmHg 90%
    23:00 +16°C° 0 mm 3 m/s 759 mmHg 91%

    Après-demain, 22 Juin, Vendredi

    Heure Température Précipitation Vent Pression Humidité
    00:00 +16°C° 0 mm 3 m/s 759 mmHg 93%
    01:00 +16°C° 0 mm 3 m/s 758 mmHg 95%
    02:00 +16°C° 0 mm 3 m/s 758 mmHg 96%
    03:00 +16°C° 0 mm 3 m/s 758 mmHg 96%
    04:00 +14°C° 0 mm 3 m/s 757 mmHg 97%
    05:00 +14°C° 0 mm 3 m/s 758 mmHg 97%
    06:00 +14°C° 0 mm 3 m/s 758 mmHg 97%
    07:00 +14°C° 0 mm 3 m/s 758 mmHg 98%
    08:00 +18°C° 0 mm 4 m/s 758 mmHg 88%
    09:00 +20°C° 0 mm 4 m/s 758 mmHg 79%
    10:00 +23°C° 0 mm 4 m/s 759 mmHg 70%
    11:00 +25°C° 0,1 mm 4 m/s 758 mmHg 67%
    12:00 +25°C° 0,1 mm 4 m/s 758 mmHg 63%
    13:00 +26°C° 0,1 mm 4 m/s 757 mmHg 60%
    14:00 +26°C° 0,1 mm 5 m/s 757 mmHg 62%
    15:00 +26°C° 0,1 mm 5 m/s 757 mmHg 63%
    16:00 +25°C° 0,1 mm 5 m/s 756 mmHg 64%
    17:00 +23°C° 0,1 mm 5 m/s 757 mmHg 74%
    18:00 +21°C° 0,1 mm 5 m/s 757 mmHg 83%
    19:00 +19°C° 0,1 mm 5 m/s 758 mmHg 92%
    20:00 +19°C° 0,2 mm 5 m/s 758 mmHg 93%
    21:00 +19°C° 0,2 mm 5 m/s 758 mmHg 94%
    22:00 +19°C° 0,2 mm 5 m/s 759 mmHg 94%
    23:00 +17°C° 0,2 mm 5 m/s 758 mmHg 95%

    23 Juin, Samedi

    Heure Température Précipitation Vent Pression Humidité
    00:00 +17°C° 0,2 mm 5 m/s 758 mmHg 96%
    01:00 +17°C° 0,2 mm 5 m/s 758 mmHg 96%
    02:00 +16°C° 0 mm 5 m/s 757 mmHg 97%
    03:00 +16°C° 0 mm 5 m/s 757 mmHg 97%
    04:00 +15°C° 0 mm 5 m/s 757 mmHg 97%
    05:00 +15°C° 0 mm 5 m/s 757 mmHg 97%
    06:00 +15°C° 0 mm 5 m/s 758 mmHg 97%
    07:00 +15°C° 0 mm 5 m/s 758 mmHg 98%
    08:00 +17°C° 0 mm 5 m/s 758 mmHg 88%
    09:00 +21°C° 0 mm 5 m/s 758 mmHg 78%
    10:00 +23°C° 0 mm 6 m/s 759 mmHg 68%
    11:00 +26°C° 0 mm 6 m/s 758 mmHg 62%
    12:00 +27°C° 0 mm 6 m/s 758 mmHg 56%
    13:00 +28°C° 0 mm 6 m/s 757 mmHg 50%
    14:00 +27°C° 0 mm 6 m/s 757 mmHg 53%
    15:00 +27°C° 0 mm 6 m/s 757 mmHg 56%
    16:00 +26°C° 0 mm 6 m/s 756 mmHg 59%
    17:00 +23°C° 0 mm 6 m/s 757 mmHg 68%
    18:00 +22°C° 0 mm 6 m/s 757 mmHg 77%
    19:00 +20°C° 0 mm 6 m/s 758 mmHg 85%
    20:00 +20°C° 0 mm 6 m/s 758 mmHg 87%
    21:00 +19°C° 0 mm 6 m/s 758 mmHg 89%
    22:00 +19°C° 0 mm 5 m/s 759 mmHg 90%
    23:00 +17°C° 0,1 mm 5 m/s 758 mmHg 92%

    24 Juin, Dimanche

    Heure Température Précipitation Vent Pression Humidité
    00:00 +17°C° 0,1 mm 5 m/s 758 mmHg 93%
    01:00 +16°C° 0,1 mm 5 m/s 758 mmHg 94%
    02:00 +16°C° 0 mm 5 m/s 758 mmHg 95%
    03:00 +16°C° 0 mm 5 m/s 758 mmHg 96%
    04:00 +15°C° 0 mm 6 m/s 757 mmHg 97%
    05:00 +15°C° 0 mm 6 m/s 758 mmHg 97%
    06:00 +15°C° 0 mm 6 m/s 758 mmHg 97%
    07:00 +15°C° 0 mm 6 m/s 758 mmHg 97%
    08:00 +17°C° 0 mm 6 m/s 758 mmHg 86%
    09:00 +21°C° 0 mm 6 m/s 759 mmHg 76%
    10:00 +23°C° 0 mm 6 m/s 759 mmHg 65%
    11:00 +24°C° 0 mm 7 m/s 758 mmHg 61%
    12:00 +26°C° 0 mm 7 m/s 758 mmHg 57%
    13:00 +27°C° 0 mm 7 m/s 757 mmHg 53%
    14:00 +27°C° 0,1 mm 7 m/s 757 mmHg 56%
    15:00 +26°C° 0,1 mm 7 m/s 757 mmHg 60%
    16:00 +24°C° 0,1 mm 7 m/s 756 mmHg 63%
    17:00 +23°C° 0 mm 7 m/s 757 mmHg 69%
    18:00 +22°C° 0 mm 7 m/s 757 mmHg 75%
    19:00 +20°C° 0 mm 7 m/s 758 mmHg 81%
    20:00 +20°C° 0 mm 6 m/s 758 mmHg 82%
    21:00 +19°C° 0 mm 6 m/s 759 mmHg 84%
    22:00 +19°C° 0 mm 6 m/s 759 mmHg 85%
    23:00 +17°C° 0 mm 6 m/s 759 mmHg 87%

    25 Juin, Lundi

    Heure Température Précipitation Vent Pression Humidité
    00:00 +16°C° 0 mm 6 m/s 758 mmHg 88%
    01:00 +16°C° 0 mm 6 m/s 758 mmHg 90%
    02:00 +16°C° 0 mm 5 m/s 758 mmHg 91%
    03:00 +15°C° 0 mm 5 m/s 758 mmHg 92%
    04:00 +15°C° 0 mm 5 m/s 758 mmHg 93%
    05:00 +15°C° 0 mm 5 m/s 758 mmHg 93%
    06:00 +14°C° 0 mm 5 m/s 758 mmHg 93%
    07:00 +14°C° 0 mm 5 m/s 759 mmHg 93%
    08:00 +17°C° 0 mm 5 m/s 759 mmHg 82%
    09:00 +20°C° 0 mm 5 m/s 759 mmHg 70%
    10:00 +23°C° 0 mm 6 m/s 759 mmHg 59%
    11:00 +24°C° 0 mm 6 m/s 759 mmHg 54%
    12:00 +26°C° 0 mm 6 m/s 758 mmHg 50%
    13:00 +27°C° 0 mm 6 m/s 758 mmHg 46%
    14:00 +27°C° 0 mm 6 m/s 757 mmHg 47%
    15:00 +26°C° 0 mm 6 m/s 757 mmHg 49%
    16:00 +26°C° 0 mm 6 m/s 757 mmHg 50%
    17:00 +23°C° 0 mm 6 m/s 758 mmHg 57%
    18:00 +22°C° 0 mm 6 m/s 758 mmHg 64%
    19:00 +21°C° 0 mm 6 m/s 758 mmHg 72%
    20:00 +20°C° 0 mm 6 m/s 759 mmHg 74%
    21:00 +20°C° 0 mm 6 m/s 759 mmHg 77%
    22:00 +19°C° 0 mm 6 m/s 759 mmHg 79%
    23:00 +19°C° 0 mm 5 m/s 759 mmHg 79%
    Voir plus